Pompano Beach, FL

9:56 PM EDT on June 27, 2017 (GMT -0400)
Pompano Beach

Weather History for KPMP - July, 2012

Change the Weather History Date:

Saturday, July 28, 2012

  Actual Average Record
Temperature  
Mean Temperature 83 °F -  
Max Temperature 90 °F 92 °F 96 °F (1980)
Min Temperature 77 °F 75 °F 68 °F (1975)
Cooling Degree Days 18    
Growing Degree Days 33 (Base 50)    
Moisture  
Dew Point 74 °F    
Average Humidity 73    
Maximum Humidity 90    
Minimum Humidity 57    
Precipitation  
Precipitation 0.00 in - - ()
Sea Level Pressure  
Sea Level Pressure 30.09 in    
Wind  
Wind Speed 5 mph (SE)    
Max Wind Speed 12 mph    
Max Gust Speed 26 mph    
Visibility 10 miles    
Events      
Averages and records for this station are not official NWS values.
T = Trace of Precipitation, MM = Missing Value Source: NWS Daily Summary

Daily Weather History Graph

Daily Weather History Graph

Search for Another Location

Airport or City:

Trip Planner

Search our weather history database for the weather conditions in past years. The results will help you decide how hot, cold, wet, or windy it might be!

Date:

Astronomy

Jul. 28, 2012 Rise Set
Actual Time 6:44 AM EDT 8:09 PM EDT
Civil Twilight 6:19 AM EDT 8:34 PM EDT
Nautical Twilight 5:49 AM EDT 9:04 PM EDT
Astronomical Twilight 5:18 AM EDT 9:35 PM EDT
Moon 4:06 PM EDT 2:05 AM EDT
Length of Visible Light 14h 15m
Length of Day
13h 25m
Waxing Gibbous, 75% of the Moon is Illuminated
Jul 28
Waxing Gibbous
Aug 1
Full
Aug 9
Last Quarter
Aug 17
New
Aug 24
First Quarter

Hourly Weather History & Observations

Time (EDT) Temp. Heat Index Dew Point Humidity Pressure Visibility Wind Dir Wind Speed Gust Speed Precip Events Conditions
12:53 AM 82.0 °F 87.9 °F 73.9 °F 76% 30.09 in 10.0 mi SE 5.8 mph - N/A   Clear
1:53 AM 82.0 °F 87.9 °F 73.9 °F 76% 30.08 in 10.0 mi SE 3.5 mph - N/A   Clear
2:53 AM 81.0 °F 86.2 °F 73.9 °F 79% 30.07 in 10.0 mi Calm Calm - N/A   Clear
3:53 AM 79.0 °F - 75.0 °F 88% 30.06 in 10.0 mi Calm Calm - N/A   Clear
4:53 AM 77.0 °F - 73.0 °F 88% 30.07 in 10.0 mi Calm Calm - N/A   Clear
5:53 AM 78.1 °F - 73.9 °F 87% 30.08 in 10.0 mi Calm Calm - N/A   Clear
6:53 AM 77.0 °F - 73.9 °F 90% 30.09 in 10.0 mi Calm Calm - N/A   Clear
7:53 AM 80.1 °F 85.4 °F 75.9 °F 87% 30.11 in 10.0 mi Calm Calm - N/A   Clear
8:53 AM 84.0 °F 91.9 °F 75.0 °F 74% 30.12 in 10.0 mi East 3.5 mph - N/A   Clear
9:53 AM 84.9 °F 93.3 °F 75.0 °F 72% 30.12 in 10.0 mi Variable 6.9 mph - N/A   Partly Cloudy
10:53 AM 86.0 °F 96.0 °F 75.9 °F 72% 30.12 in 10.0 mi ESE 9.2 mph - N/A   Clear
11:53 AM 87.1 °F 97.3 °F 75.9 °F 69% 30.12 in 10.0 mi ESE 10.4 mph - N/A   Clear
12:53 PM 89.1 °F 100.2 °F 75.9 °F 65% 30.12 in 10.0 mi ESE 9.2 mph - N/A   Partly Cloudy
1:45 PM 82.4 °F 87.2 °F 71.6 °F 70% 30.13 in 10.0 mi SSW 10.4 mph 26.5 mph N/A   Mostly Cloudy
1:53 PM 82.9 °F 88.0 °F 72.0 °F 69% 30.12 in 10.0 mi WSW 10.4 mph 18.4 mph N/A   Mostly Cloudy
2:53 PM 88.0 °F 93.8 °F 71.1 °F 57% 30.09 in 10.0 mi Variable 3.5 mph - 0.00 in   Clear
3:53 PM 88.0 °F 96.5 °F 73.9 °F 63% 30.08 in 10.0 mi SE 11.5 mph - N/A   Clear
4:53 PM 87.1 °F 94.5 °F 73.0 °F 63% 30.07 in 10.0 mi ESE 11.5 mph - N/A   Clear
5:53 PM 87.1 °F 95.4 °F 73.9 °F 65% 30.06 in 10.0 mi ESE 11.5 mph - N/A   Clear
6:53 PM 86.0 °F 93.0 °F 73.0 °F 65% 30.06 in 10.0 mi ESE 11.5 mph - N/A   Clear
7:53 PM 84.9 °F 91.4 °F 73.0 °F 67% 30.06 in 10.0 mi SE 10.4 mph - N/A   Partly Cloudy
8:53 PM 84.0 °F 90.2 °F 73.0 °F 69% 30.07 in 10.0 mi SE 10.4 mph - N/A   Clear
9:53 PM 84.0 °F 90.2 °F 73.0 °F 69% 30.08 in 10.0 mi SE 8.1 mph - N/A   Clear
10:53 PM 82.9 °F 88.0 °F 72.0 °F 69% 30.09 in 10.0 mi SE 8.1 mph - N/A   Clear
11:53 PM 82.9 °F 88.0 °F 72.0 °F 69% 30.09 in 10.0 mi SSE 5.8 mph - N/A   Clear